RH
51 50 49 49 50 48 45 46 49 50 51 51 49 49 51 55 63 67 66 65 63 60 59 61 63 65 70 74 77 78 78 79 79 79 86 94 98 100 100 100 100 100
50 50 50 51 51 49 46 45 46 46 46 46 44 44 44 49 62 69 67 65 64 61 61 64 67 70 73 74 75 77 79 80 80 80 83 85 89 95 99 100 100 100
50 50 50 52 51 50 48 46 46 45 44 43 42 41 40 42 53 64 68 67 66 64 61 63 70 74 75 75 75 77 80 82 80 80 83 84 85 89 92 96 99 100
50 50 50 51 52 51 49 48 47 46 45 44 43 42 41 39 42 53 64 68 68 68 64 62 68 75 77 77 77 78 81 83 81 83 86 84 84 86 87 89 91 93
50 50 50 50 51 51 50 49 48 47 47 46 45 44 43 40 38 43 56 65 68 70 69 65 66 73 78 79 78 78 80 81 84 92 97 92 88 89 90 90 90 88
49 50 50 49 51 52 51 50 49 47 48 48 47 46 44 42 40 41 48 58 64 68 70 70 70 72 77 79 80 79 78 82 91 98 101 99 97 95 94 94 94 91
46 46 46 47 50 52 52 51 49 48 48 48 47 47 46 44 43 43 45 51 57 63 68 71 72 75 76 76 78 79 79 87 98 100 99 100 100 97 94 94 96 95
44 43 43 45 48 51 53 52 50 49 48 48 49 48 48 46 45 45 46 49 54 59 65 68 71 75 75 71 71 75 81 90 100 101 99 100 100 97 95 95 98 98
43 44 44 45 47 50 53 52 51 50 49 49 50 49 49 49 48 47 47 50 53 57 63 68 70 73 72 67 63 66 76 87 93 96 98 100 100 100 98 98 99 100
43 46 47 48 50 51 53 54 52 51 50 50 50 50 51 51 50 50 49 51 54 57 62 66 68 68 66 64 56 49 62 80 86 91 97 99 100 100 99 99 100 100
44 46 48 51 53 53 55 55 54 52 51 51 51 51 53 53 53 52 51 54 56 59 63 64 63 61 59 60 48 33 47 77 88 90 94 98 100 100 100 100 100 100
44 47 49 52 54 55 57 57 56 54 51 51 52 53 54 56 55 53 54 56 58 62 66 61 55 54 54 53 38 24 44 79 90 88 91 96 100 100 99 100 100 100
46 50 53 55 56 57 58 59 57 54 52 52 53 55 57 58 56 55 56 57 60 63 63 54 46 46 49 44 28 25 54 84 90 91 93 96 100 100 95 98 100 100
52 55 57 58 58 58 59 60 59 55 53 55 57 60 63 61 58 57 56 59 62 59 54 48 43 47 52 43 27 35 68 89 91 95 97 96 100 99 93 95 100 99
58 58 57 56 56 58 61 62 59 55 56 60 64 67 68 64 60 58 57 59 59 54 49 47 51 62 62 42 33 53 82 92 93 98 100 99 100 96 93 95 97 96
59 56 54 54 57 64 68 64 58 58 63 68 72 74 70 66 63 59 58 59 55 52 53 54 64 75 64 47 58 84 96 97 99 100 99 99 95 90 92 95 94 92
57 54 55 61 68 73 70 63 60 64 71 75 76 74 70 67 64 59 59 59 55 56 61 66 77 79 66 68 90 99 96 98 102 99 97 95 89 85 91 95 92 88
58 60 67 73 76 74 67 65 69 74 77 77 74 73 70 67 63 61 61 59 57 62 67 75 86 81 72 86 100 93 92 100 100 95 93 91 87 85 91 95 91 87
64 71 78 79 78 75 72 74 78 79 78 76 73 74 72 68 65 64 63 62 66 72 74 81 89 81 76 92 97 89 94 99 91 86 85 85 86 86 92 98 92 86
78 83 85 83 81 81 80 81 80 77 75 74 75 75 73 70 69 67 67 71 78 80 79 86 92 85 84 97 97 90 97 96 83 80 84 85 87 90 97 100 93 86
88 88 87 87 85 83 81 77 74 72 72 75 77 77 76 76 75 76 80 82 81 81 84 90 96 94 94 101 96 92 100 95 78 79 91 93 93 99 102 98 93 88
89 88 88 87 84 80 76 72 71 72 76 80 81 80 82 83 81 84 90 87 81 85 93 96 98 97 98 101 96 94 101 94 76 80 97 99 97 101 100 94 92 88
89 89 88 85 81 77 75 74 76 80 84 85 83 83 85 83 83 87 90 88 88 94 99 100 97 93 95 101 97 94 101 98 81 82 98 101 98 99 95 90 86 81
91 90 89 85 82 80 80 82 85 88 89 85 83 84 85 84 88 91 87 86 94 99 100 100 97 90 90 98 100 96 100 99 87 87 98 101 98 96 92 87 81 76
92 92 91 89 88 87 89 92 94 92 88 83 82 85 87 88 92 90 84 86 94 99 98 99 100 92 85 93 102 99 96 97 92 91 96 97 93 88 82 77 72 67
87 91 95 95 95 96 98 98 96 90 85 82 83 87 91 92 90 87 86 88 91 93 94 97 102 95 83 90 103 100 93 95 95 92 90 86 80 73 66 60 60 58
Wind_Speed
15 14 13 14 16 18 20 21 22 23 24 24 24 24 24 23 21 23 26 28 28 28 27 26 26 25 25 24 24 24 23 22 21 19 17 17 20 24 26 27 28 29
14 13 13 14 14 16 17 18 20 21 22 23 25 25 26 24 21 21 24 25 27 28 27 26 25 25 25 24 24 24 24 23 22 21 19 17 16 18 23 26 27 28
13 13 14 15 15 16 16 16 18 18 19 20 22 24 26 26 23 21 21 22 25 27 27 27 26 25 24 24 24 23 23 23 23 22 22 20 17 15 16 20 24 27
13 13 14 15 17 17 17 17 17 17 17 17 19 21 24 25 25 23 22 22 23 24 25 26 26 25 24 24 24 23 23 23 23 22 22 22 19 17 15 14 16 21
14 14 15 16 18 18 18 18 18 17 17 16 16 18 20 22 24 24 23 23 23 23 24 24 24 24 24 24 24 24 24 24 23 21 20 21 20 18 17 15 13 13
16 16 17 18 19 19 19 19 19 18 18 16 15 16 18 20 21 22 22 23 24 24 24 23 22 23 23 24 24 24 24 24 21 19 17 18 18 18 17 16 15 13
17 18 19 20 20 20 20 19 19 18 18 17 15 15 16 18 19 20 21 22 23 24 24 23 22 21 22 23 25 25 24 22 19 17 17 17 18 19 18 16 16 16
19 20 21 22 22 21 21 20 19 19 18 17 15 15 15 16 18 19 20 21 23 23 23 23 22 22 22 23 24 25 24 20 18 18 19 19 19 19 19 18 16 15
21 22 23 24 24 24 23 22 21 20 19 17 15 14 14 15 16 17 19 20 22 22 22 22 23 23 23 24 24 24 22 20 19 19 19 19 19 19 19 17 14 11
23 24 25 25 25 26 26 24 23 22 20 18 16 14 14 15 16 17 18 19 20 21 22 22 23 24 24 25 24 23 21 19 18 19 18 18 18 18 15 11 7 5
23 24 26 26 27 27 26 25 25 24 21 18 16 15 15 14 16 17 17 18 19 20 21 22 23 24 25 26 25 22 20 17 16 16 17 17 17 13 8 5 4 5
22 23 24 25 26 26 26 26 26 25 22 19 17 16 14 14 16 17 17 18 18 19 20 21 22 23 24 25 24 21 17 14 13 14 16 17 16 10 6 5 6 7
22 21 21 21 23 23 24 26 27 26 23 19 16 14 13 14 16 17 17 18 18 19 20 20 21 22 23 23 21 18 14 13 13 14 16 16 12 8 5 4 6 6
20 18 16 17 19 21 23 26 26 24 20 16 13 11 12 15 17 18 18 18 18 19 19 18 18 19 21 20 18 14 12 13 16 18 19 17 9 4 3 3 4 5
16 15 15 18 19 21 23 23 21 19 15 11 10 11 14 16 17 18 18 18 19 19 17 16 16 17 18 17 14 12 13 16 18 17 15 13 8 3 1 1 2 4
14 16 19 20 20 21 21 18 17 15 11 9 10 13 16 17 17 17 18 19 19 18 16 14 14 15 16 14 13 14 17 17 13 7 5 5 4 2 0 1 1 3
19 21 21 20 19 17 15 15 15 12 9 9 13 16 17 17 17 18 18 18 17 16 15 13 13 14 14 14 13 15 17 13 7 3 1 1 2 2 1 2 2 3
23 21 19 16 14 12 12 13 12 9 9 13 16 17 17 17 17 17 16 15 14 14 13 12 12 13 13 13 13 13 12 7 4 2 1 2 4 4 1 2 2 3
20 17 15 13 12 11 11 10 8 9 13 16 17 17 18 17 16 16 15 14 13 13 12 11 11 11 12 11 12 13 9 3 1 2 3 3 5 5 2 2 2 2
15 12 11 10 8 7 7 6 10 14 16 18 18 18 17 16 15 14 14 13 13 13 12 10 10 10 10 10 11 12 7 1 2 3 2 2 3 2 1 4 3 2
9 9 7 6 4 5 9 13 16 18 18 18 17 16 15 14 13 13 13 13 13 13 10 9 9 9 9 10 11 11 5 2 4 2 2 1 2 4 6 7 6 4
8 8 6 5 8 12 16 19 19 18 17 16 15 14 13 13 12 12 12 13 12 10 8 8 8 8 9 10 10 11 7 3 2 0 3 5 8 10 10 9 7 6
10 9 8 11 14 17 19 19 17 16 15 14 14 13 13 13 12 11 12 11 10 7 6 7 7 7 9 9 9 12 9 3 2 2 5 9 11 11 9 8 7 6
12 12 13 15 17 18 18 16 15 14 14 13 13 14 13 13 12 12 12 10 7 6 6 6 6 7 8 8 10 12 7 3 4 5 8 10 10 9 6 5 5 5
14 15 16 17 17 16 14 14 13 13 14 13 13 13 12 12 12 12 12 10 8 7 6 6 7 8 7 8 11 9 3 4 5 7 9 9 6 5 4 4 5 5
15 16 17 16 15 14 13 13 14 14 13 13 12 12 11 12 12 11 11 9 7 7 6 6 7 7 7 10 10 3 4 5 6 8 7 6 5 5 5 5 6 5
Wind_Direction
346 346 345 344 345 347 347 346 346 347 349 352 354 354 353 352 352 350 346 346 348 348 346 344 343 343 341 339 336 332 330 329 329 331 328 310 290 277 269 265 261 256
333 332 331 332 335 339 340 340 340 341 343 347 350 351 352 352 351 349 346 345 345 346 345 344 343 343 342 340 337 334 332 328 325 325 327 324 313 293 276 269 264 259
320 320 320 320 323 326 328 328 330 333 336 340 345 349 350 350 349 346 346 345 343 344 344 343 342 341 340 339 338 336 333 330 326 324 322 320 322 316 297 280 270 263
308 309 311 312 311 313 314 315 318 321 324 329 337 344 346 349 348 345 344 343 343 343 342 341 340 339 337 336 336 336 334 330 327 327 323 317 317 318 315 304 283 269
299 300 302 304 302 301 302 304 308 311 313 318 327 336 342 347 348 346 342 340 340 340 340 339 337 336 335 334 333 333 333 331 330 330 326 321 319 318 317 317 307 288
294 295 296 297 295 291 291 295 300 303 304 307 317 328 336 343 347 346 342 338 336 336 336 337 335 333 332 331 331 330 329 330 330 330 329 327 325 322 319 318 313 306
288 293 294 293 289 284 285 289 292 294 295 299 307 318 329 339 344 345 342 337 333 333 333 333 332 331 330 328 327 327 328 328 327 327 326 327 326 320 318 319 315 309
282 288 291 290 285 281 282 284 285 286 287 290 297 309 322 334 341 343 341 336 332 330 329 328 328 328 327 326 324 325 326 325 322 322 322 322 322 318 317 320 318 312
279 281 284 284 281 279 280 281 282 282 282 283 289 301 315 328 338 340 338 335 331 328 326 324 324 324 323 322 322 321 321 318 315 316 317 316 317 317 317 318 314 308
277 278 278 277 276 276 276 278 280 279 276 277 283 294 308 323 334 337 336 332 329 326 324 321 320 320 319 319 319 319 316 313 312 311 311 313 318 320 320 319 318 324
276 276 276 274 273 272 273 276 277 274 271 271 277 288 302 319 330 333 333 329 325 322 319 318 318 317 315 316 318 317 312 309 310 307 308 312 315 318 326 345 10 23
276 277 278 278 274 271 274 278 275 268 264 265 271 283 299 319 329 331 330 326 321 318 315 315 315 313 312 314 316 315 310 306 304 299 304 311 308 306 328 14 39 43
278 280 283 283 280 279 283 283 273 261 256 258 265 278 302 323 328 328 327 322 317 313 311 312 313 310 311 313 313 310 302 298 298 296 301 305 300 293 313 7 48 49
282 286 289 291 289 289 291 286 269 253 247 251 261 283 312 325 327 325 322 319 314 310 308 310 311 310 311 312 309 304 301 300 302 303 300 294 285 286 314 359 42 44
287 294 299 301 298 296 295 283 259 240 238 249 269 301 320 323 322 321 319 316 313 308 306 309 310 311 312 311 304 302 306 305 301 299 290 272 254 253 311 18 41 36
303 308 309 307 302 299 293 272 242 231 240 260 292 315 321 319 318 317 316 315 310 306 306 308 309 312 312 307 298 296 299 298 291 284 267 235 223 234 213 135 80 51
316 314 310 305 299 294 280 251 232 233 253 286 311 318 316 315 314 314 313 311 306 304 306 307 310 314 313 305 296 294 295 289 268 242 233 53 21 14 92 145 101 68
316 311 304 298 292 280 255 235 231 249 283 305 313 313 311 311 310 310 309 308 303 302 304 307 311 314 311 301 295 298 296 273 216 203 319 358 356 355 355 172 127 73
312 302 295 290 279 258 239 234 253 286 304 311 311 309 308 307 306 306 305 304 303 303 304 306 312 313 308 300 296 299 293 241 176 342 332 320 327 335 324 193 150 52
307 297 293 283 263 246 250 281 305 311 313 311 308 305 304 304 304 304 303 303 304 306 304 304 311 314 307 298 297 299 292 241 351 329 285 281 309 319 212 165 138 45
312 310 303 282 271 294 314 318 316 314 312 307 303 302 302 303 303 301 302 303 305 306 301 298 307 310 304 298 298 299 298 350 351 324 170 137 100 125 138 133 113 89
334 329 317 311 318 319 318 316 312 308 305 303 303 303 302 303 302 299 299 301 305 306 298 295 300 304 305 301 298 298 299 318 345 262 148 122 117 122 122 113 98 88
333 325 319 319 318 315 311 308 304 302 302 304 306 305 304 304 302 298 298 302 307 307 299 295 296 307 315 307 301 303 297 260 179 154 135 124 120 117 112 104 90 66
321 315 313 313 312 308 305 302 300 301 304 306 306 304 305 306 303 301 299 297 295 295 299 294 289 307 322 316 311 312 296 196 167 154 136 127 121 112 97 82 65 39
315 312 310 311 309 306 303 302 303 306 308 307 306 305 305 305 304 304 299 289 277 280 286 276 276 297 318 322 323 319 280 182 167 154 137 124 111 94 72 47 35 23
315 312 311 311 309 306 305 307 308 310 310 309 308 307 305 304 306 306 299 289 277 277 271 257 267 283 308 330 337 332 184 167 149 140 126 109 82 50 38 37 37 38